Change the Weather History Date:

Sunday, March 16, 2014

  Actual Average Record
Temperature  
Mean Temperature 48 °F 34 °F  
Max Temperature 60 °F 46 °F 68 °F (1994)
Min Temperature 36 °F 23 °F -12 °F (1943)
Degree Days  
Heating Degree Days 17 31  
Month to date heating degree days 559 529  
Since 1 July heating degree days 6213 6034  
Cooling Degree Days 0 0  
Month to date cooling degree days 0 0  
Year to date cooling degree days 0 0  
Growing Degree Days 2 (Base 50)    
Moisture  
Dew Point 19 °F    
Average Humidity 28    
Maximum Humidity 39    
Minimum Humidity 17    
Precipitation  
Precipitation 0.00 in 0.03 in 0.51 in (1981)
Month to date precipitation 0.82 0.41  
Year to date precipitation 3.24 1.39  
Snow  
Snow 0.00 in 0.40 in 5.70 in (1989)
Month to date snowfall 7.4 6.1  
Since 1 July snowfall 64.9 46.1  
Snow Depth 0.00 in    
Sea Level Pressure  
Sea Level Pressure 29.90 in    
Wind  
Wind Speed 22 mph (SW)    
Max Wind Speed 41 mph    
Max Gust Speed 51 mph    
Visibility 10 miles    
Events      
T = Trace of Precipitation, MM = Missing Value Source: NWS Daily Summary

Daily Weather History Graph

Daily Weather History Graph

Search for Another Location

Airport or City:

Trip Planner

Search our weather history database for the weather conditions in past years. The results will help you decide how hot, cold, wet, or windy it might be!

Date:

Astronomy

Mar. 16, 2014 Rise Set
Actual Time 7:36 AM MDT 7:32 PM MDT
Civil Twilight 7:05 AM MDT 8:03 PM MDT
Nautical Twilight 6:30 AM MDT 8:39 PM MDT
Astronomical Twilight 5:53 AM MDT 9:15 PM MDT
Moon 7:57 PM MDT (3/16) 7:20 AM MDT (3/16)
Length of Visible Light 12h 57m
Length of Day
11h 56m
Full, 100% of the Moon is Illuminated
Mar 16
Full
Mar 23
Last Quarter
Mar 30
New
Apr 7
First Quarter
Apr 15
Full

Hourly Weather History & Observations

Time (MDT) Temp. Windchill Dew Point Humidity Pressure Visibility Wind Dir Wind Speed Gust Speed Precip Events Conditions
12:53 AM 43.0 °F 34.0 °F 19.0 °F 38% 30.12 in 10.0 mi SSW 21.9 mph 33.4 mph N/A   Clear
1:53 AM 45.0 °F 35.8 °F 18.0 °F 34% 30.08 in 10.0 mi SW 26.5 mph 35.7 mph N/A   Clear
2:53 AM 46.0 °F 37.0 °F 17.1 °F 31% 30.07 in 10.0 mi SSW 27.6 mph 36.8 mph N/A   Clear
3:53 AM 46.0 °F 36.9 °F 18.0 °F 33% 30.06 in 10.0 mi SW 28.8 mph 38.0 mph N/A   Clear
4:53 AM 46.9 °F - 17.1 °F 30% 30.03 in 10.0 mi SSW 25.3 mph 32.2 mph N/A   Clear
5:53 AM 46.9 °F - 19.0 °F 33% 29.99 in 10.0 mi SW 27.6 mph 35.7 mph N/A   Clear
6:53 AM 48.0 °F - 19.0 °F 32% 30.01 in 10.0 mi SSW 20.7 mph 33.4 mph N/A   Clear
7:53 AM 46.9 °F - 19.9 °F 34% 29.98 in 10.0 mi SSW 24.2 mph - N/A   Clear
8:53 AM 48.9 °F - 21.0 °F 33% 29.99 in 10.0 mi SSW 24.2 mph 32.2 mph N/A   Clear
9:53 AM 50.0 °F - 21.0 °F 32% 30.01 in 10.0 mi SSW 20.7 mph 29.9 mph N/A   Clear
10:53 AM 55.0 °F - 21.0 °F 27% 29.96 in 10.0 mi SSW 32.2 mph 40.3 mph N/A   Clear
11:53 AM 55.9 °F - 23.0 °F 28% 29.94 in 10.0 mi SSW 21.9 mph 31.1 mph N/A   Partly Cloudy
12:53 PM 57.9 °F - 25.0 °F 28% 29.90 in 10.0 mi WSW 24.2 mph 32.2 mph N/A   Clear
1:53 PM 55.9 °F - 25.0 °F 30% 29.88 in 10.0 mi SW 24.2 mph 36.8 mph N/A   Clear
2:53 PM 60.1 °F - 24.1 °F 25% 29.86 in 10.0 mi WSW 18.4 mph 31.1 mph N/A   Partly Cloudy
3:53 PM 57.9 °F - 19.9 °F 23% 29.81 in 10.0 mi West 33.4 mph 41.4 mph N/A   Clear
4:53 PM 59.0 °F - 15.1 °F 18% 29.78 in 10.0 mi WSW 31.1 mph 42.6 mph N/A   Clear
5:53 PM 57.9 °F - 14.0 °F 18% 29.78 in 10.0 mi WSW 27.6 mph 36.8 mph N/A   Clear
6:53 PM 55.0 °F - 15.1 °F 21% 29.76 in 10.0 mi WSW 18.4 mph 27.6 mph N/A   Clear
7:53 PM 50.0 °F - 17.1 °F 27% 29.75 in 10.0 mi WSW 15.0 mph - N/A   Clear
8:53 PM 48.0 °F - 15.1 °F 27% 29.73 in 10.0 mi SW 17.3 mph - N/A   Clear
9:53 PM 46.9 °F - 15.1 °F 28% 29.70 in 10.0 mi SW 17.3 mph - N/A   Clear
10:53 PM 45.0 °F 38.9 °F 15.1 °F 30% 29.67 in 10.0 mi WSW 12.7 mph - N/A   Clear
11:53 PM 43.0 °F 38.2 °F 16.0 °F 34% 29.63 in 10.0 mi SW 8.1 mph - N/A   Clear